TimeEDT,TemperatureF,Dew PointF,Humidity,Sea Level PressureIn,VisibilityMPH,Wind Direction,Wind SpeedMPH,Gust SpeedMPH,PrecipitationIn,Events,Conditions,WindDirDegrees,DateUTC
12:15 AM,44.2,36.1,73,30.33,10.0,East,6.9,-,N/A,,Clear,100,2013-04-22 04:15:00
12:35 AM,42.6,36.5,79,30.33,10.0,Calm,Calm,-,N/A,,Clear,0,2013-04-22 04:35:00
12:55 AM,41.7,36.5,82,30.33,10.0,Calm,Calm,-,N/A,,Clear,0,2013-04-22 04:55:00
1:15 AM,40.8,36.3,84,30.32,10.0,NW,3.5,-,N/A,,Clear,320,2013-04-22 05:15:00
1:35 AM,41.9,36.1,80,30.32,10.0,Calm,Calm,-,N/A,,Clear,0,2013-04-22 05:35:00
1:55 AM,39.4,36.5,89,30.32,10.0,Calm,Calm,-,N/A,,Clear,0,2013-04-22 05:55:00
2:15 AM,38.3,36.1,92,30.31,10.0,Calm,Calm,-,N/A,,Clear,0,2013-04-22 06:15:00
2:35 AM,38.3,36.0,91,30.31,10.0,Calm,Calm,-,N/A,,Clear,0,2013-04-22 06:35:00
2:55 AM,38.8,36.1,90,30.31,10.0,Calm,Calm,-,N/A,,Clear,0,2013-04-22 06:55:00
3:15 AM,38.1,36.1,93,30.30,10.0,Calm,Calm,-,N/A,,Clear,0,2013-04-22 07:15:00
3:35 AM,37.9,35.6,91,30.30,10.0,Calm,Calm,-,N/A,,Clear,0,2013-04-22 07:35:00
3:55 AM,36.9,34.3,91,30.31,10.0,Calm,Calm,-,N/A,,Clear,0,2013-04-22 07:55:00
4:15 AM,36.3,34.7,94,30.31,10.0,Calm,Calm,-,N/A,,Clear,0,2013-04-22 08:15:00
4:35 AM,37.0,35.8,95,30.30,10.0,Calm,Calm,-,N/A,,Clear,0,2013-04-22 08:35:00
4:55 AM,36.3,35.1,95,30.30,10.0,Calm,Calm,-,N/A,,Clear,0,2013-04-22 08:55:00
5:15 AM,34.9,34.0,97,30.31,10.0,Calm,Calm,-,N/A,,Clear,0,2013-04-22 09:15:00
5:35 AM,35.4,34.7,97,30.31,10.0,Calm,Calm,-,N/A,,Clear,0,2013-04-22 09:35:00
5:55 AM,36.1,34.3,93,30.31,10.0,Calm,Calm,-,N/A,,Clear,0,2013-04-22 09:55:00
6:15 AM,34.5,33.6,97,30.33,10.0,Calm,Calm,-,N/A,,Clear,0,2013-04-22 10:15:00
6:35 AM,34.0,33.3,97,30.33,10.0,Calm,Calm,-,N/A,,Clear,0,2013-04-22 10:35:00
6:55 AM,34.9,33.4,94,30.33,10.0,Calm,Calm,-,N/A,,Clear,0,2013-04-22 10:55:00
7:15 AM,34.0,32.7,95,30.34,10.0,Calm,Calm,-,N/A,,Clear,0,2013-04-22 11:15:00
7:35 AM,34.5,33.8,97,30.35,5.0,Calm,Calm,-,N/A,,Clear,0,2013-04-22 11:35:00
7:55 AM,36.7,35.6,96,30.36,10.0,Calm,Calm,-,N/A,,Clear,0,2013-04-22 11:55:00
8:15 AM,38.5,36.5,93,30.36,10.0,Calm,Calm,-,N/A,,Clear,0,2013-04-22 12:15:00
8:35 AM,40.1,37.0,89,30.36,10.0,Calm,Calm,-,N/A,,Clear,0,2013-04-22 12:35:00
8:55 AM,42.4,38.5,86,30.35,10.0,Calm,Calm,-,N/A,,Clear,0,2013-04-22 12:55:00
9:15 AM,44.8,38.8,80,30.35,10.0,Calm,Calm,-,N/A,,Clear,0,2013-04-22 13:15:00
9:35 AM,47.8,40.3,75,30.34,10.0,Calm,Calm,-,N/A,,Clear,0,2013-04-22 13:35:00
9:55 AM,51.6,40.5,66,30.34,10.0,Calm,Calm,-,N/A,,Clear,0,2013-04-22 13:55:00
10:15 AM,54.1,38.3,55,30.33,10.0,ESE,3.5,-,N/A,,Clear,120,2013-04-22 14:15:00
10:35 AM,55.4,38.3,53,30.32,10.0,Calm,Calm,-,N/A,,Clear,0,2013-04-22 14:35:00
10:55 AM,56.5,38.5,51,30.31,10.0,Calm,Calm,-,N/A,,Clear,0,2013-04-22 14:55:00
11:15 AM,58.3,37.8,46,30.31,10.0,SSE,3.5,-,N/A,,Clear,150,2013-04-22 15:15:00
11:35 AM,59.2,38.5,46,30.30,10.0,Calm,Calm,-,N/A,,Clear,0,2013-04-22 15:35:00
11:55 AM,61.5,39.0,43,30.29,10.0,Calm,Calm,-,N/A,,Clear,0,2013-04-22 15:55:00
12:15 PM,62.4,38.5,41,30.27,10.0,SSE,3.5,-,N/A,,Clear,160,2013-04-22 16:15:00
12:35 PM,64.4,37.4,37,30.26,10.0,South,3.5,-,N/A,,Clear,170,2013-04-22 16:35:00
12:55 PM,65.3,39.2,38,30.25,10.0,Calm,Calm,-,N/A,,Clear,0,2013-04-22 16:55:00
1:55 PM,68.0,40.5,37,30.22,10.0,West,9.2,-,N/A,,Clear,270,2013-04-22 17:55:00
2:15 PM,68.2,38.5,34,30.20,10.0,SW,5.8,18.4,N/A,,Clear,220,2013-04-22 18:15:00
2:35 PM,68.4,35.8,30,30.20,10.0,Calm,Calm,-,N/A,,Clear,0,2013-04-22 18:35:00
2:55 PM,69.8,41.2,35,30.19,10.0,Calm,Calm,-,N/A,,Clear,0,2013-04-22 18:55:00
3:15 PM,69.3,39.4,34,30.18,10.0,West,4.6,-,N/A,,Clear,270,2013-04-22 19:15:00
3:35 PM,69.1,41.5,37,30.18,10.0,SW,6.9,-,N/A,,Clear,220,2013-04-22 19:35:00
3:55 PM,68.2,42.3,39,30.17,10.0,West,9.2,-,N/A,,Clear,280,2013-04-22 19:55:00
4:15 PM,68.2,41.4,38,30.16,10.0,WNW,8.1,-,N/A,,Clear,290,2013-04-22 20:15:00
4:35 PM,69.6,39.9,34,30.15,10.0,SSE,3.5,-,N/A,,Clear,160,2013-04-22 20:35:00
4:55 PM,70.2,36.3,29,30.14,10.0,SW,4.6,-,N/A,,Clear,220,2013-04-22 20:55:00
5:15 PM,70.5,36.9,29,30.14,10.0,WSW,6.9,-,N/A,,Clear,250,2013-04-22 21:15:00
5:35 PM,70.7,35.1,27,30.13,10.0,SSW,3.5,-,N/A,,Clear,210,2013-04-22 21:35:00
5:55 PM,68.9,39.6,34,30.13,10.0,WSW,5.8,-,N/A,,Clear,250,2013-04-22 21:55:00
6:15 PM,69.6,34.7,28,30.13,10.0,SE,6.9,-,N/A,,Clear,140,2013-04-22 22:15:00
6:35 PM,68.9,36.3,30,30.14,10.0,SSW,5.8,-,N/A,,Clear,210,2013-04-22 22:35:00
6:55 PM,67.6,36.3,32,30.14,10.0,South,10.4,-,N/A,,Clear,180,2013-04-22 22:55:00
7:15 PM,65.8,35.4,32,30.14,10.0,South,6.9,-,N/A,,Clear,190,2013-04-22 23:15:00
7:35 PM,64.8,36.1,35,30.15,10.0,SW,5.8,-,N/A,,Clear,230,2013-04-22 23:35:00
7:55 PM,62.8,35.6,36,30.15,10.0,West,4.6,-,N/A,,Clear,260,2013-04-22 23:55:00
8:15 PM,61.0,36.0,39,30.16,10.0,SW,5.8,-,N/A,,Clear,220,2013-04-23 00:15:00
8:35 PM,54.3,39.9,58,30.17,10.0,Calm,Calm,-,N/A,,Clear,0,2013-04-23 00:35:00
8:55 PM,61.5,35.8,38,30.17,10.0,WSW,3.5,-,N/A,,Clear,250,2013-04-23 00:55:00
9:15 PM,54.3,38.5,55,30.18,10.0,Calm,Calm,-,N/A,,Clear,0,2013-04-23 01:15:00
9:35 PM,52.2,39.4,62,30.19,10.0,Calm,Calm,-,N/A,,Clear,0,2013-04-23 01:35:00
9:55 PM,51.6,39.4,63,30.19,10.0,Calm,Calm,-,N/A,,Clear,0,2013-04-23 01:55:00
10:15 PM,48.9,39.6,70,30.20,10.0,Calm,Calm,-,N/A,,Clear,0,2013-04-23 02:15:00
10:35 PM,47.8,40.3,75,30.21,10.0,Calm,Calm,-,N/A,,Clear,0,2013-04-23 02:35:00
10:55 PM,46.8,39.2,75,30.22,10.0,Calm,Calm,-,N/A,,Clear,0,2013-04-23 02:55:00
11:15 PM,46.8,39.2,75,30.22,10.0,Calm,Calm,-,N/A,,Clear,0,2013-04-23 03:15:00
11:35 PM,44.8,39.9,83,30.23,10.0,Calm,Calm,-,N/A,,Clear,0,2013-04-23 03:35:00
11:55 PM,44.8,39.0,80,30.23,10.0,Calm,Calm,-,N/A,,Clear,0,2013-04-23 03:55:00